Home   Weather   Innsbruck   Past weeks
Flag for Austria

Past Weather in Innsbruck, Tyrol, Austria — Yesterday and Last 2 Weeks

Now
87 °F

Scattered clouds.


Feels Like: 85 °F
Forecast: 95 / 62 °F
Wind: 5 mph from East

Location: Innsbruck-Flughafen

Current Time: Jun 24, 2019 at 7:36:57 pm

Latest Report: Jun 24, 2019 at 6:00 pm


Visibility: 28 mi

Pressure: 29.94 "Hg (28.08 "Hg at 570m altitude)

Humidity: 31%

Dew Point: 53 °F

Location of InnsbruckLocation

Past Weather in Innsbruck — Graph

°F

Innsbruck Temperature Yesterday

Maximum temperature yesterday: 73 °F (at 7:00 pm)
Minimum temperature yesterday: 60 °F (at 5:00 am)
Average temperature yesterday: 66 °F

High & Low Weather Summary for the Past Weeks

 TemperatureHumidityPressure
High92 °F (Jun 14, 3:00 pm)96% (Jun 19, 4:00 am)30.20 "Hg (Jun 19, 4:00 am)
Low53 °F (Jun 14, 6:00 am)16% (Jun 13, 4:00 pm)29.59 "Hg (Jun 12, 1:00 pm)
Average68 °F66%29.93 "Hg
* Reported Jun 9 6:00 pm — Jun 24 6:00 pm, Innsbruck. Weather by CustomWeather, © 2019

Note: Actual official high and low records may vary slightly from our data, if they occured in-between our weather recording intervals... More about our weather records

Advertising

Innsbruck Weather History for the Previous 24 Hours

Scroll right to see more
 ConditionsComfort  
Time TempWeatherWind HumidityBarometerVisibility
6:00 pm
Mon, Jun 24
87 °FScattered clouds.5 mph31%29.94 "Hg28 mi
5:00 pm86 °FScattered clouds.5 mph37%29.94 "Hg31 mi
4:00 pm85 °FPassing clouds.5 mph40%29.96 "Hg37 mi
3:00 pm83 °FPassing clouds.5 mph40%29.97 "Hg28 mi
1:00 pm79 °FPassing clouds.3 mph48%30.02 "Hg37 mi
12:00 pm76 °FPassing clouds.1 mph52%30.05 "Hg37 mi
11:00 am73 °FPassing clouds.1 mph62%30.08 "Hg34 mi
10:00 am68 °FPassing clouds.2 mph67%30.12 "Hg34 mi
9:00 am65 °FPassing clouds.2 mph76%30.15 "Hg37 mi
8:00 am62 °FPassing clouds.2 mph83%30.17 "Hg19 mi
7:00 am61 °FPassing clouds.1 mph84%30.17 "Hg22 mi
6:00 am54 °FScattered clouds.1 mph92%30.20 "Hg19 mi
5:00 am56 °FCool.1 mph91%30.17 "Hg31 mi
4:00 am56 °FCool.1 mph90%30.17 "Hg19 mi
3:00 am57 °FCool.1 mph88%30.16 "Hg22 mi
1:00 am62 °FMild.2 mph77%30.13 "Hg37 mi
12:00 am65 °FMild.2 mph70%30.11 "Hg31 mi
11:00 pm
Sun, Jun 23
63 °FPassing clouds.1 mph79%30.10 "Hg37 mi
10:00 pm64 °FPassing clouds.1 mph79%30.08 "Hg15 mi
9:00 pm68 °FScattered clouds.1 mph70%30.04 "Hg43 mi
8:00 pm72 °FScattered clouds.2 mph65%30.00 "Hg40 mi
7:00 pm73 °FScattered clouds.2 mph61%29.98 "Hg37 mi
Weather by CustomWeather, © 2019

See weather overview